Change the Weather History Date:

Saturday, August 9, 2014

  Actual Average (KDFW) Record (KDFW)
Temperature  
Mean Temperature 88 °F 86 °F  
Max Temperature 98 °F 97 °F 108 °F (2012)
Min Temperature 77 °F 76 °F 60 °F (1989)
Degree Days  
Heating Degree Days 0 0  
Month to date heating degree days 0  
Since 1 June heating degree days 0  
Since 1 July heating degree days 0  
Cooling Degree Days 22 21  
Month to date cooling degree days 189  
Year to date cooling degree days 1733  
Since 1 June cooling degree days 1311  
Growing Degree Days 38 (Base 50)    
Moisture  
Dew Point 72 °F    
Average Humidity 63    
Maximum Humidity 87    
Minimum Humidity 36    
Precipitation  
Precipitation 0.00 in 0.05 in 1.22 in (1915)
Month to date precipitation 0.49  
Year to date precipitation 22.69  
Sea Level Pressure  
Sea Level Pressure 29.95 in    
Wind  
Wind Speed 7 mph (SSE)    
Max Wind Speed 15 mph    
Max Gust Speed 22 mph    
Visibility 10 miles    
Events      
T = Trace of Precipitation, MM = Missing Value Source: NWS Daily Summary

Daily Weather History Graph

Daily Weather History Graph

Search for Another Location

Airport or City:

Trip Planner

Search our weather history database for the weather conditions in past years. The results will help you decide how hot, cold, wet, or windy it might be!

Date:

Astronomy

Aug. 09, 2014 Rise Set
Actual Time 6:44 AM CDT 8:17 PM CDT
Civil Twilight 6:18 AM CDT 8:43 PM CDT
Nautical Twilight 5:46 AM CDT 9:15 PM CDT
Astronomical Twilight 5:13 AM CDT 9:48 PM CDT
Moon 7:20 PM CDT (8/9) 5:26 AM CDT (8/9)
Length of Visible Light 14h 25m
Length of Day
13h 32m
Waxing Gibbous, 98% of the Moon is Illuminated
Aug 9
Waxing Gibbous
Aug 10
Full
Aug 17
Last Quarter
Aug 25
New
Sep 2
First Quarter

Hourly Weather History & Observations

Time (CDT) Temp. Heat Index Dew Point Humidity Pressure Visibility Wind Dir Wind Speed Gust Speed Precip Events Conditions
12:35 AM 81.9 °F 87.3 °F 73.4 °F 75% 29.94 in 10.0 mi SE 5.8 mph - N/A   Clear
12:55 AM 81.7 °F 87.1 °F 73.4 °F 76% 29.92 in 10.0 mi SSE 5.8 mph - N/A   Clear
1:15 AM 81.3 °F 86.3 °F 73.2 °F 76% 29.92 in 10.0 mi SSE 6.9 mph - N/A   Clear
1:35 AM 81.5 °F 86.5 °F 73.0 °F 75% 29.92 in 10.0 mi SSE 8.1 mph - N/A   Clear
1:55 AM 81.1 °F 86.0 °F 73.0 °F 76% 29.92 in 10.0 mi SE 9.2 mph - N/A   Clear
2:15 AM 80.1 °F 84.2 °F 72.9 °F 79% 29.92 in 10.0 mi ESE 9.2 mph - N/A   Clear
2:35 AM 80.2 °F 84.5 °F 72.9 °F 78% 29.92 in 10.0 mi ESE 9.2 mph - N/A   Clear
2:55 AM 80.2 °F 84.5 °F 72.7 °F 78% 29.92 in 10.0 mi SE 5.8 mph - N/A   Clear
3:15 AM 79.9 °F - 72.9 °F 79% 29.92 in 10.0 mi SE 4.6 mph - N/A   Clear
3:35 AM 79.3 °F - 72.9 °F 80% 29.92 in 10.0 mi SSE 6.9 mph - N/A   Clear
3:55 AM 79.3 °F - 73.0 °F 81% 29.93 in 10.0 mi Calm Calm - N/A   Clear
4:15 AM 77.9 °F - 72.9 °F 84% 29.94 in 10.0 mi Calm Calm - N/A   Clear
4:35 AM 77.9 °F - 73.0 °F 85% 29.95 in 10.0 mi Calm Calm - N/A   Clear
4:55 AM 77.4 °F - 73.0 °F 86% 29.94 in 10.0 mi SSE 4.6 mph - N/A   Clear
5:15 AM 77.4 °F - 73.2 °F 87% 29.94 in 10.0 mi SSE 6.9 mph - N/A   Clear
5:35 AM 77.9 °F - 73.0 °F 85% 29.93 in 10.0 mi South 11.5 mph 18.4 mph N/A   Clear
5:55 AM 77.9 °F - 72.9 °F 84% 29.94 in 10.0 mi South 6.9 mph - N/A   Clear
6:15 AM 77.4 °F - 72.9 °F 86% 29.95 in 10.0 mi South 4.6 mph - N/A   Clear
6:35 AM 77.2 °F - 72.7 °F 86% 29.95 in 10.0 mi South 5.8 mph - N/A   Clear
6:55 AM 77.2 °F - 72.7 °F 86% 29.96 in 10.0 mi SSE 5.8 mph - N/A   Clear
7:15 AM 77.4 °F - 72.5 °F 85% 29.97 in 10.0 mi SSW 8.1 mph - N/A   Clear
7:35 AM 77.9 °F - 72.7 °F 84% 29.97 in 10.0 mi South 9.2 mph 16.1 mph N/A   Clear
7:55 AM 79.0 °F - 72.7 °F 81% 29.97 in 10.0 mi South 8.1 mph 18.4 mph N/A   Clear
8:15 AM 80.2 °F 84.5 °F 72.9 °F 78% 29.97 in 10.0 mi South 8.1 mph 17.3 mph N/A   Clear
8:35 AM 81.3 °F 86.1 °F 72.7 °F 75% 29.97 in 10.0 mi South 10.4 mph - N/A   Clear
8:55 AM 82.6 °F 87.8 °F 72.3 °F 71% 29.98 in 10.0 mi SSW 12.7 mph 17.3 mph N/A   Clear
9:15 AM 83.7 °F 89.4 °F 72.5 °F 69% 29.98 in 10.0 mi SSW 10.4 mph - N/A   Clear
9:35 AM 84.6 °F 91.0 °F 72.9 °F 68% 29.98 in 10.0 mi South 9.2 mph - N/A   Clear
9:55 AM 85.3 °F 92.2 °F 73.0 °F 67% 29.98 in 10.0 mi SSW 9.2 mph - N/A   Clear
10:15 AM 86.5 °F 93.8 °F 72.9 °F 64% 29.99 in 10.0 mi SW 9.2 mph - N/A   Clear
10:35 AM 87.3 °F 94.5 °F 73.0 °F 62% 29.99 in 10.0 mi WSW 8.1 mph - N/A   Clear
10:55 AM 88.0 °F 95.6 °F 73.2 °F 61% 30.00 in 10.0 mi SW 6.9 mph - N/A   Clear
11:15 AM 89.4 °F 97.8 °F 73.4 °F 59% 30.00 in 10.0 mi SSW 8.1 mph - N/A   Clear
11:35 AM 90.1 °F 99.4 °F 73.9 °F 59% 30.00 in 10.0 mi South 9.2 mph - N/A   Clear
11:55 AM 91.4 °F 100.7 °F 73.6 °F 56% 30.00 in 10.0 mi SSW 9.2 mph - N/A   Clear
12:15 PM 92.3 °F 101.5 °F 73.4 °F 54% 29.99 in 10.0 mi South 10.4 mph - N/A   Clear
12:35 PM 93.7 °F 104.3 °F 74.1 °F 53% 29.98 in 10.0 mi South 10.4 mph - N/A   Clear
12:55 PM 94.3 °F 103.5 °F 72.9 °F 50% 29.98 in 10.0 mi SSW 8.1 mph - N/A   Clear
1:15 PM 95.4 °F 104.0 °F 72.3 °F 47% 29.98 in 10.0 mi South 11.5 mph - N/A   Clear
1:35 PM 95.7 °F 103.4 °F 71.1 °F 45% 29.97 in 10.0 mi South 8.1 mph 16.1 mph N/A   Clear
1:55 PM 95.0 °F 102.5 °F 71.4 °F 46% 29.97 in 10.0 mi South 6.9 mph - N/A   Clear
2:15 PM 96.3 °F 105.3 °F 72.1 °F 46% 29.96 in 10.0 mi South 10.4 mph - N/A   Clear
2:35 PM 96.6 °F 104.7 °F 71.2 °F 44% 29.95 in 10.0 mi South 11.5 mph 18.4 mph N/A   Scattered Clouds
2:55 PM 97.0 °F 105.5 °F 72.0 °F 44% 29.95 in 10.0 mi South 11.5 mph - N/A   Scattered Clouds
3:15 PM 97.3 °F 106.3 °F 72.0 °F 44% 29.93 in 10.0 mi South 5.8 mph 16.1 mph N/A   Clear
3:35 PM 97.3 °F 105.6 °F 71.2 °F 43% 29.92 in 10.0 mi South 10.4 mph 17.3 mph N/A   Clear
3:55 PM 96.3 °F 102.0 °F 69.3 °F 41% 29.92 in 10.0 mi SSE 6.9 mph 16.1 mph N/A   Clear
4:15 PM 98.1 °F 105.0 °F 69.8 °F 40% 29.90 in 10.0 mi South 11.5 mph - N/A   Clear
4:35 PM 98.1 °F 104.4 °F 69.4 °F 39% 29.90 in 10.0 mi SSE 10.4 mph 16.1 mph N/A   Clear
4:55 PM 98.2 °F 104.1 °F 68.5 °F 38% 29.89 in 10.0 mi South 9.2 mph 16.1 mph N/A   Clear
5:15 PM 98.1 °F 103.0 °F 67.6 °F 37% 29.88 in 10.0 mi South 9.2 mph 19.6 mph N/A   Clear
5:35 PM 97.9 °F 102.7 °F 67.5 °F 37% 29.89 in 10.0 mi SSE 6.9 mph - N/A   Clear
5:55 PM 97.2 °F 100.7 °F 66.2 °F 36% 29.89 in 10.0 mi SSE 6.9 mph - N/A   Clear
6:15 PM 96.8 °F 100.7 °F 66.9 °F 37% 29.89 in 10.0 mi South 8.1 mph 16.1 mph N/A   Clear
6:35 PM 96.3 °F 100.8 °F 67.6 °F 39% 29.90 in 10.0 mi SSE 9.2 mph - N/A   Clear
6:55 PM 95.7 °F 99.8 °F 67.5 °F 39% 29.90 in 10.0 mi SSE 5.8 mph - N/A   Clear
7:15 PM 94.5 °F 99.1 °F 67.8 °F 42% 29.90 in 10.0 mi SSE 4.6 mph - N/A   Clear
7:35 PM 93.0 °F 97.9 °F 68.5 °F 45% 29.91 in 10.0 mi Calm Calm - N/A   Clear
7:55 PM 91.6 °F 96.7 °F 69.1 °F 48% 29.91 in 10.0 mi SE 8.1 mph - N/A   Clear
8:15 PM 90.5 °F 95.5 °F 69.8 °F 50% 29.91 in 10.0 mi SE 8.1 mph - N/A   Clear
8:35 PM 89.6 °F 96.2 °F 71.4 °F 55% 29.92 in 10.0 mi ESE 8.1 mph - N/A   Clear
8:55 PM 88.3 °F 95.0 °F 72.0 °F 58% 29.94 in 10.0 mi ESE 9.2 mph - N/A   Clear
9:15 PM 87.4 °F 94.8 °F 73.0 °F 62% 29.95 in 10.0 mi East 9.2 mph - N/A   Clear
9:35 PM 85.5 °F 91.8 °F 72.5 °F 65% 29.97 in 10.0 mi ENE 12.7 mph 21.9 mph N/A   Clear
9:55 PM 82.9 °F 87.7 °F 71.6 °F 68% 29.99 in 10.0 mi ENE 15.0 mph - N/A   Clear
10:15 PM 81.1 °F 85.0 °F 71.1 °F 71% 29.99 in 10.0 mi ENE 13.8 mph 19.6 mph N/A   Clear
11:15 PM 79.0 °F - 70.2 °F 74% 29.98 in 10.0 mi East 10.4 mph - N/A   Clear
11:35 PM 78.6 °F - 69.8 °F 74% 29.98 in 10.0 mi East 4.6 mph - N/A   Clear
11:55 PM 77.9 °F - 69.3 °F 75% 29.97 in 10.0 mi SE 4.6 mph - N/A   Clear